Texas Shootout - 2ND RACE

Station: HEDLEY - A Race

Distance: 209 Miles    

Release: 13-Jan-2018 08:30

Weather Release: MOSTLY SUNNY    Arrival: CLEAR

Wind at Release: CALM     Wind at Arrival: NNE 10-15

Temp at Release: 21°    Temp at Arrival: 40°

Lofts: 174

Birds: 719

Clocked: 681

HAULER SAID THEY WERE GONE OUT OF SITE GOOD LUCK
Drops Pos Breeder Pigeon Name Color Sex Ent Arrival Speed To Win Eligible
101 Hutchins Loft - TX 0082-AU17-HUCH BC H 2 12:47:30.89 1428.423 00:07:51 Yes
102 Crestview Loft - TX 1338-AU17-CVL BB C 2 12:47:31.55 1428.362 00:07:52 Yes
103 Barry Venn - WY 1968-AU17-VENN BB H 2 12:47:32.74 1428.252 00:07:53 Yes
104 C B S & Big Mike - OK 1247-AU17-CBS BC H 1 12:47:32.89 1428.238 00:07:53 Yes
105 Sanders Family - TX 0190-AU17-CHMP BB H 1 12:47:32.94 1428.233 00:07:53 Yes
106 Elton Dinga - TX 12090-AU17-AA Klaas 820 x 404 Maxxi BB C 6 12:47:32.97 1428.230 00:07:53 Yes
107 O & L De Vries - ON 2430-AU17-OL 241 x 2238 BB C 3 12:47:33.07 1428.221 00:07:53 Yes
108 Alfonso Garcia - TX 0300-AU17-DAL BC H 3 12:47:33.63 1428.169 00:07:54 Yes
109 Alfonso Garcia - TX 0290-AU17-DAL BC C 4 12:47:33.85 1428.149 00:07:54 Yes
110 A D L Loft - IL 0176-AU17-ADL BB C 2 12:47:33.93 1428.142 00:07:54 Yes
111 Liu Loft - NC 8887-AU17-LIU BB H 3 12:47:34.11 1428.125 00:07:54 Yes
112 Elton Dinga - TX 12089-AU17-AA Klaas 820 x 404 Maxxi BB H 7 12:47:34.16 1428.120 00:07:54 Yes
113 Marengo Creek Farms - AL 2768-AU17-MCF BB C 4 12:47:35.28 1428.017 00:07:55 Yes
114 Crestview Loft - TX 1337-AU17-CVL BB H 3 12:47:35.66 1427.982 00:07:56 Yes
115 Yendez Loft - TX 0088-AU17-YEND BB H 3 12:47:36.02 1427.948 00:07:56 Yes
116 Rossi Loft Llc - WI 2094-AU17-KEN BB H 1 12:47:36.28 1427.924 00:07:56 Yes
117 New Orleans Boys 2 - LA 0341-AU17-MET BB H 1 12:47:36.33 1427.920 00:07:56 Yes
118 Hutchins Loft - TX 16087-AU17-QS BB H 3 12:47:36.41 1427.912 00:07:56 Yes
119 Mlb Team - TX 2945-AU17-TEX BB H 2 12:47:36.64 1427.891 00:07:57 Yes
120 Baden Feed - ON 7142-IF17-S BB C 1 12:47:36.89 1427.868 00:07:57 Yes
121 Elton Dinga - TX 12084-AU17-AA Schaerlaeckens x Jansen BB H 8 12:47:37.35 1427.826 00:07:57 Yes
122 Wind Chaser - MI 1666-AU17-GRM BC C 1 12:47:37.47 1427.815 00:07:58 Yes
123 Tony Alvarado - TX 0064-AU17-WETT BB H 1 12:47:37.88 1427.777 00:07:58 Yes
124 Buck`S - TX 34102-AU17-AA SLAT C 3 12:47:38.13 1427.754 00:07:58 Yes
125 Dream Team - VT 0551-AU17-JCZL BBWF C 2 12:47:38.50 1427.719 00:07:59 Yes
126 B & S Team - TX 0219-AU17-CAMP BB H 1 12:47:38.96 1427.677 00:07:59 Yes
127 French Camp Connection - CA 71985-AU17-MAN BB C 2 12:47:39.94 1427.586 00:08:00 Yes
128 Crestview Loft - TX 1332-AU17-CVL BB H 4 12:47:40.11 1427.571 00:08:00 Yes
129 Carroll Hoover - PA 1137-IF17-RLPC BB H 2 12:47:40.21 1427.561 00:08:00 Yes
130 Nemelka Racing Pigeon Loft - UT 7141-AU17-NRPL 4010 x Miss Beaut BC H 2 12:47:40.32 1427.551 00:08:00 Yes
131 Spirit In The Sky - IL 0366-AU17-LCC BBWF C 1 12:47:40.35 1427.549 00:08:00 Yes
132 Two-Be-Won - NV 17157-AU17-TBW BWFP H 1 12:47:40.47 1427.537 00:08:01 Yes
133 Utaz Boys/ Jones - UT 1082-AU17-SLI BB H 1 12:47:40.52 1427.533 00:08:01 Yes
134 Sandstrom Brothers Loft - MN 0789-AU17-SBL BCPD H 1 12:47:40.88 1427.500 00:08:01 Yes
135 The Firm - TX 0342-AU17-WWC Yipikaye BC H 1 12:47:40.91 1427.497 00:08:01 Yes
136 Neighbor Hood Bullies - TX 0701-AU17-HALE BBWF C 3 12:47:41.11 1427.478 00:08:01 Yes
137 Ecker/Murphy Syndicate - PA 1615-AU17-GSV BCSP H 1 12:47:42.10 1427.387 00:08:02 Yes
138 Scorpion Loft - TX 14723-MX17-CNU BB H 2 12:47:42.32 1427.367 00:08:02 Yes
139 Little Reata Loft - TX 17330-AU17-JETT BB H 3 12:47:43.13 1427.292 00:08:03 Yes
140 Dream Team - VT 0818-AU17-JCZL BC H 3 12:47:46.24 1427.005 00:08:06 Yes
141 Lazy P Loft - TX 0044-IF17-RLPC BB C 1 12:48:03.93 1425.375 00:08:24 Yes
142 Elton Dinga - TX 12150-AU17-AA Jansen 24256 x Sablon BC H 9 12:51:32.00 1406.475 00:11:52 Yes
143 H & H Loft - TX 6966-AU17-VK BC H 1 12:51:33.10 1406.376 00:11:53 Yes
144 Zheng Loft - FL 0118-AU17-LIN BB H 1 12:51:38.11 1405.927 00:11:58 Yes
145 Ed Minvielle - LA 17245-AU17-A BC H 2 12:52:14.02 1402.718 00:12:34 Yes
146 Zhenyuan Guo - SC 0687-AU17-GUO BC H 2 12:52:14.97 1402.634 00:12:35 Yes
147 Dream Union - DC 1136-IF17-SLP BB C 1 12:52:15.68 1402.570 00:12:36 Yes
148 Utaz Boys/ Jones - UT 1086-AU17-SLI BCWF C 2 12:52:15.85 1402.555 00:12:36 Yes
149 Flying D / Matt Mitchell - TX 0195-AU17-FLYD BB H 1 12:52:17.19 1402.436 00:12:37 Yes
150 Holleys Silver Star - TX 0931-AU17-DEN DCSP H 2 12:52:17.82 1402.380 00:12:38 Yes
151 Russell Hall - TX 7023-AU17-HALL BBSP H 1 12:52:17.83 1402.379 00:12:38 Yes
152 Kibria Rpl - TX 0090-AU17-EISN EVO 002 + 1430 BCWF H 2 12:52:18.88 1402.285 00:12:39 Yes
153 Da Dong - WI 0814-AU17-DONG BBSP C 4 12:52:19.53 1402.227 00:12:40 Yes
154 Tepa - TX 0290-AU17-DEN BB C 1 12:52:43.03 1400.137 00:13:03 Yes
155 Uncle Dirty's Loft - TX 0220-AU17-CAMP BB H 1 12:53:16.80 1397.144 00:13:37 Yes
156 Elton Dinga - TX 12065-AU17-AA Hebberecht 74 x Diels 390 DC H 10 12:53:17.78 1397.057 00:13:38 Yes
157 Lechuga Loft - TX 0008-MX17-LECH BB C 1 12:55:46.93 1383.991 00:16:07 Yes
158 A D L Loft - IL 0169-AU17-ADL BBWF H 3 12:55:53.41 1383.428 00:16:13 Yes
159 Jimenez Racer Loft - TX 1164-AU17-WWC BKSP H 1 12:55:56.91 1383.125 00:16:17 Yes
160 Racing Pigeon Mall - WA 0711-AU17-RPM BB C 1 12:55:56.96 1383.121 00:16:17 Yes
161 Southern Legacy Loft - TX 2284-AU17-JOJO BB H 3 12:55:57.32 1383.089 00:16:17 Yes
162 Tepa - TX 0263-AU17-DEN BB H 2 12:55:58.16 1383.017 00:16:18 Yes
163 Double B S Loft - CA 0600-AU17-AUB BC H 1 12:55:58.61 1382.978 00:16:19 Yes
164 Crowder Loft - TX 0380-AU17-FLYN BC H 2 12:56:02.66 1382.627 00:16:23 Yes
165 Wolf Den & Family Loft - IL 0032-AU17-WOLF BB H 2 12:56:21.97 1380.956 00:16:42 Yes
166 Lazy P Loft - TX 0043-IF17-RLPC BB H 2 12:56:22.18 1380.938 00:16:42 Yes
167 Milestone Loft - CA 0188-AU17-SD DCWF C 1 12:56:24.28 1380.757 00:16:44 Yes
168 Carroll Hoover - PA 1131-IF17-RLPC MSPL C 3 12:56:24.88 1380.705 00:16:45 Yes
169 New Orleans Boys 2 - LA 0348-AU17-MET BB H 2 12:56:29.71 1380.288 00:16:50 Yes
170 Beauty Shop Girls - TX 0222-AU17-CAMP BC H 1 12:56:30.18 1380.247 00:16:50 Yes
171 K & R Loft - TX 2038-AU17-KBUC BC H 1 12:56:37.00 1379.659 00:16:57 Yes
172 Traci Peacock - TX 0195-AU17-CHMP BWFP C 1 12:56:37.78 1379.591 00:16:58 Yes
173 Cbs & Steve - OK 1428-AU17-CBS BC C 1 12:56:38.08 1379.566 00:16:58 Yes
174 Liqing Ni Loft - NY 0287-AU17-YANG BB H 1 12:56:39.24 1379.466 00:16:59 Yes
175 Elton Dinga - TX 12173-AU17-AA Jansen 711 x Diels 391 BC H 11 12:56:40.85 1379.327 00:17:01 Yes
176 Clear Springs Loft - FL 17112-AU17-WARD BC C 2 12:56:40.89 1379.323 00:17:01 Yes
177 A P C Loft - TX 17320-AU17-APC BB H 2 12:56:42.24 1379.207 00:17:02 Yes
178 Liqing Ni Loft - NY 0288-AU17-YANG BB C 2 12:56:42.32 1379.200 00:17:02 Yes
179 Wessel Family Lofts - CA 1466-AU17-ARC BB H 2 12:56:42.46 1379.188 00:17:03 Yes
180 Shiloft - PA 0075-IF17-MIN BC C 2 12:57:14.14 1376.463 00:17:34 Yes
181 A D L Loft - IL 0147-AU17-ADL BC H 4 12:57:21.52 1375.830 00:17:42 Yes
182 Hi-Cal Connection - CA 0867-AU17-HICA BB C 1 12:57:45.27 1373.796 00:18:05 Yes
183 Wolf Den & Family Loft - IL 0055-AU17-WOLF BB C 3 12:57:54.14 1373.038 00:18:14 Yes
184 R P S Loft - CA 1480-AU17-FOYS DC H 1 12:57:56.86 1372.805 00:18:17 Yes
185 Chen Loft - PA 1085-AU17-TFC BC C 3 12:57:58.24 1372.688 00:18:18 Yes
186 Smith & Smith 1 - TX 17054-AU17-ACES BC H 3 12:57:58.30 1372.682 00:18:18 Yes
187 Ed Minvielle - LA 17229-AU17-A BC C 3 12:57:58.43 1372.671 00:18:19 Yes
188 Wartick Loft - KS 35897-AU17-AA BWFP H 1 12:57:58.52 1372.664 00:18:19 Yes
189 Kanetzky & Vazquez Loft - TX 2661-AU17-TEX BC H 1 12:57:58.75 1372.644 00:18:19 Yes
190 777 Victory Loft - NY 0132-AU17-NYLN BWFP H 3 12:57:58.78 1372.641 00:18:19 Yes
191 Wind Chaser - MI 1624-AU17-GRM BC H 2 12:57:59.05 1372.618 00:18:19 Yes
192 Cuba Loft 2 - TX 36162-AU17-ARPU BC H 1 12:57:59.39 1372.589 00:18:19 Yes
193 Sonder Loft - CA 21727-AU17-JEDD BC H 1 12:57:59.44 1372.585 00:18:20 Yes
194 Perfection Loft - KS 3749-AU17-AA BB C 1 12:58:00.27 1372.514 00:18:20 Yes
195 Franco Loft - TX 0739-AU17-DEN DC H 1 12:58:01.03 1372.449 00:18:21 Yes
196 Relax & Barger - CA 0708-AU17-OBC BC C 1 12:58:01.19 1372.436 00:18:21 Yes
197 Scorpion Loft - TX 14772-MX17-CNU BB H 3 12:58:03.85 1372.209 00:18:24 Yes
198 Richard Callahan - MO 37947-AU17-AA BC C 4 12:58:04.39 1372.163 00:18:24 Yes
199 Hillbilly Loft - TX 17635-AU17-AA BWFP H 2 12:58:08.93 1371.776 00:18:29 Yes
200 Ecker/Murphy Syndicate - PA 2394-IF17-CVR BB H 2 12:58:48.50 1368.410 00:19:09 Yes

There are 984 bird records

Note: These Race Results are unofficial and subject to change until verified by the Race Committee and declared final.